Le nostre stazioni meteo in Italia

Pubblicità
Il mio iltempo24.it
Ustica, Italia (16400): Temperatura & dewpoint: 09.11.2018 08:00:00 - 15.11.2018 08:00:00 (CET)Ustica, Italia (16400): velocità del vento: 09.11.2018 08:00:00 - 15.11.2018 08:00:00 (CET)Ustica, Italia (16400): direzione del vento: 09.11.2018 08:00:00 - 15.11.2018 08:00:00 (CET)Ustica, Italia (16400): reduced air pressure: 09.11.2018 08:00:00 - 15.11.2018 08:00:00 (CET)Ustica, Italia (16400): visibility: 09.11.2018 08:00:00 - 15.11.2018 08:00:00 (CET)Ustica, Italia (16400): ore di luce: 09.11.2018 08:00:00 - 15.11.2018 08:00:00 (CET)
Data & Tempo tt [°C] td [°C] ff [km/h] ff [kn] dd ppp [hPa] vv [km] sd [min]
15.11.2018 08:00:00 19,0 17,3 4 2 NNO 1022,1 30 0
15.11.2018 07:00:00 19,0 18,0 4 2 NNO 1021,9 30 0
15.11.2018 06:00:00 - - - - - - - -
15.11.2018 05:00:00 - - - - - - - -
15.11.2018 04:00:00 - - - - - - - -
15.11.2018 03:00:00 - - - - - - - -
15.11.2018 02:00:00 - - - - - - - -
15.11.2018 01:00:00 - - - - - - - -
15.11.2018 00:00:00 - - - - - - - -
14.11.2018 23:00:00 - - - - - - - -
14.11.2018 22:00:00 - - - - - - - -
14.11.2018 21:00:00 - - - - - - - -
14.11.2018 20:00:00 - - - - - - - -
14.11.2018 19:00:00 19,4 17,7 9 5 NNE 1024,3 20 0
14.11.2018 18:00:00 20,4 18,7 16 9 ENE 1024,4 20 30
14.11.2018 17:00:00 21,0 18,4 11 6 ENE 1024,4 20 24
14.11.2018 16:00:00 21,0 18,8 9 5 NE 1024,4 20 60
14.11.2018 15:00:00 20,0 17,4 8 4 NNE 1024,5 20 30
14.11.2018 14:00:00 20,0 17,4 11 6 NNE 1024,7 20 60
14.11.2018 13:00:00 20,0 17,4 5 3 NNE 1025,5 20 60
14.11.2018 12:00:00 20,0 17,4 8 4 NNE 1026,0 20 60
14.11.2018 11:00:00 20,0 18,3 8 4 NE 1026,7 20 12
14.11.2018 10:00:00 20,0 18,3 5 3 NNE 1026,6 20 30
14.11.2018 09:00:00 20,0 18,3 9 5 NNE 1026,5 20 36
14.11.2018 08:00:00 20,0 18,3 9 5 N 1026,3 20 0
14.11.2018 07:00:00 19,6 17,9 8 4 N 1026,0 20 0
14.11.2018 06:00:00 - - - - - - - -
14.11.2018 05:00:00 - - - - - - - -
14.11.2018 04:00:00 - - - - - - - -
14.11.2018 03:00:00 - - - - - - - -
14.11.2018 02:00:00 - - - - - - - -
14.11.2018 01:00:00 - - - - - - - -
14.11.2018 00:00:00 - - - - - - - -
13.11.2018 23:00:00 - - - - - - - -
13.11.2018 22:00:00 - - - - - - - -
13.11.2018 21:00:00 - - - - - - - -
13.11.2018 20:00:00 - - - - - - - -
13.11.2018 19:00:00 19,8 18,1 0 0 N 1027,8 20 0
13.11.2018 18:00:00 20,0 18,7 0 0 N 1027,5 20 0
13.11.2018 17:00:00 20,4 18,7 0 0 N 1027,4 20 60
13.11.2018 16:00:00 21,0 18,4 0 0 N 1027,3 10 60
13.11.2018 15:00:00 21,0 18,9 0 0 N 1027,6 20 60
13.11.2018 14:00:00 21,0 18,9 0 0 N 1027,6 20 60
13.11.2018 13:00:00 20,0 18,1 0 0 N 1028,0 20 60
13.11.2018 12:00:00 21,0 18,4 0 0 N 1028,3 20 60
13.11.2018 11:00:00 21,2 18,6 0 0 N 1028,3 15 60
13.11.2018 10:00:00 21,0 18,4 0 0 N 1028,1 10 60
13.11.2018 09:00:00 21,0 19,3 4 2 S 1027,8 20 60
13.11.2018 08:00:00 20,0 18,3 5 3 NE 1027,6 15 24
13.11.2018 07:00:00 20,0 18,5 8 4 NE 1026,8 15 0
13.11.2018 06:00:00 - - - - - - - -
13.11.2018 05:00:00 - - - - - - - -
13.11.2018 04:00:00 - - - - - - - -
13.11.2018 03:00:00 - - - - - - - -
13.11.2018 02:00:00 - - - - - - - -
13.11.2018 01:00:00 - - - - - - - -
13.11.2018 00:00:00 - - - - - - - -
12.11.2018 23:00:00 - - - - - - - -
12.11.2018 22:00:00 - - - - - - - -
12.11.2018 21:00:00 - - - - - - - -
12.11.2018 20:00:00 - - - - - - - -
12.11.2018 19:00:00 20,4 18,7 4 2 S 1025,7 20 0
12.11.2018 18:00:00 19,8 18,3 9 5 S 1025,5 20 0
12.11.2018 17:00:00 20,4 18,7 11 6 S 1025,5 20 60
12.11.2018 16:00:00 20,4 18,7 8 4 S 1025,5 25 60
12.11.2018 15:00:00 21,0 19,3 5 3 S 1025,4 25 60
12.11.2018 14:00:00 21,0 20,0 8 4 S 1025,4 25 60
12.11.2018 13:00:00 21,0 18,9 8 4 SSE 1025,4 20 60
12.11.2018 12:00:00 21,0 19,1 4 2 SE 1026,0 20 60
12.11.2018 11:00:00 20,0 18,3 8 4 SSO 1026,2 20 60
12.11.2018 10:00:00 20,0 17,4 8 4 E 1025,8 20 60
12.11.2018 09:00:00 20,0 18,3 5 3 E 1025,0 20 60
12.11.2018 08:00:00 20,0 18,3 5 3 E 1024,5 20 0
12.11.2018 07:00:00 20,0 18,3 9 5 E 1024,5 20 0
12.11.2018 06:00:00 - - - - - - - -
12.11.2018 05:00:00 - - - - - - - -
12.11.2018 04:00:00 - - - - - - - -
12.11.2018 03:00:00 - - - - - - - -
12.11.2018 02:00:00 - - - - - - - -
12.11.2018 01:00:00 - - - - - - - -
12.11.2018 00:00:00 - - - - - - - -
11.11.2018 23:00:00 - - - - - - - -
11.11.2018 22:00:00 - - - - - - - -
11.11.2018 21:00:00 - - - - - - - -
11.11.2018 20:00:00 - - - - - - - -
11.11.2018 19:00:00 20,0 20,0 4 2 SSO 1020,4 20 0
11.11.2018 18:00:00 20,4 20,4 11 6 SSO 1020,6 25 0
11.11.2018 17:00:00 20,0 19,2 8 4 OSO 1020,4 20 60
11.11.2018 16:00:00 20,0 18,5 9 5 OSO 1020,4 20 60
11.11.2018 15:00:00 21,0 18,4 9 5 SO 1019,8 20 60
11.11.2018 14:00:00 20,0 16,4 8 4 OSO 1019,9 20 60
11.11.2018 13:00:00 20,0 16,3 8 4 SO 1019,9 20 60
11.11.2018 12:00:00 20,0 16,4 8 4 SO 1020,0 20 60
11.11.2018 11:00:00 20,0 18,0 9 5 SO 1019,7 20 60
11.11.2018 10:00:00 19,0 16,6 9 5 SO 1019,8 20 60
11.11.2018 09:00:00 18,4 17,2 11 6 SSO 1019,7 20 48
11.11.2018 08:00:00 17,6 16,7 5 3 SSO 1019,3 20 24
11.11.2018 07:00:00 17,4 17,4 5 3 SSO 1018,5 20 0
11.11.2018 06:00:00 - - - - - - - -
11.11.2018 05:00:00 - - - - - - - -
11.11.2018 04:00:00 - - - - - - - -
11.11.2018 03:00:00 - - - - - - - -
11.11.2018 02:00:00 - - - - - - - -
11.11.2018 01:00:00 - - - - - - - -
11.11.2018 00:00:00 - - - - - - - -
10.11.2018 23:00:00 - - - - - - - -
10.11.2018 22:00:00 - - - - - - - -
10.11.2018 21:00:00 - - - - - - - -
10.11.2018 20:00:00 - - - - - - - -
10.11.2018 19:00:00 17,0 17,0 4 2 OSO 1015,2 20 0
10.11.2018 18:00:00 17,4 17,1 4 2 S 1015,1 20 0
10.11.2018 17:00:00 17,4 17,1 4 2 SSO 1014,7 20 24
10.11.2018 16:00:00 19,0 17,2 8 4 SSO 1014,8 20 48
10.11.2018 15:00:00 20,0 19,1 9 5 SSO 1014,7 20 30
10.11.2018 14:00:00 20,0 17,3 8 4 SSO 1014,4 20 48
10.11.2018 13:00:00 20,0 17,0 8 4 SSE 1014,3 20 48
10.11.2018 12:00:00 19,6 16,9 5 3 S 1015,1 20 42
10.11.2018 11:00:00 18,6 16,5 5 3 S 1015,6 20 60
10.11.2018 10:00:00 18,0 16,2 9 5 SE 1016,0 20 24
10.11.2018 09:00:00 18,0 17,1 15 8 SE 1016,1 20 12
10.11.2018 08:00:00 18,0 17,7 15 8 ESE 1016,0 20 18
10.11.2018 07:00:00 17,4 17,1 5 3 SE 1015,8 20 0
10.11.2018 06:00:00 - - - - - - - -
10.11.2018 05:00:00 - - - - - - - -
10.11.2018 04:00:00 - - - - - - - -
10.11.2018 03:00:00 - - - - - - - -
10.11.2018 02:00:00 - - - - - - - -
10.11.2018 01:00:00 - - - - - - - -
10.11.2018 00:00:00 - - - - - - - -
09.11.2018 23:00:00 - - - - - - - -
09.11.2018 22:00:00 - - - - - - - -
09.11.2018 21:00:00 - - - - - - - -
09.11.2018 20:00:00 - - - - - - - -
09.11.2018 19:00:00 17,0 16,7 5 3 NNE 1018,4 20 0
09.11.2018 18:00:00 17,4 17,1 5 3 NE 1017,7 20 0
09.11.2018 17:00:00 17,6 17,3 11 6 E 1017,8 20 30
09.11.2018 16:00:00 19,8 18,3 11 6 E 1017,6 20 60
09.11.2018 15:00:00 20,0 17,0 9 5 ESE 1017,6 20 60
09.11.2018 14:00:00 20,0 17,0 15 8 SE 1018,0 20 60
09.11.2018 13:00:00 20,2 17,8 18 10 SE 1018,8 20 60
09.11.2018 12:00:00 20,2 17,5 22 12 SE 1019,3 20 60
09.11.2018 11:00:00 20,0 17,3 28 15 SE 1019,7 20 60
09.11.2018 10:00:00 20,0 17,9 26 14 SSE 1020,0 20 60
09.11.2018 09:00:00 19,6 18,4 22 12 SSE 1020,1 20 60
09.11.2018 08:00:00 19,0 18,7 18 10 SSE 1020,2 20 60

tt = Temperatura
td = dewpoint
ff = velocità del vento
dd = direzione del vento
ppp = reduced air pressure
vv = visibility
sd = ore di luce

Stazioni seguenti

WeatherPro
AMSI
MeteoEarth